KU4ME Weather Reports


time (UTC)temp
C
wind
direction
speed
KPH
gust
KPH
rain 1hr
cm
rain 24hr
cm
rain mn
cm
humidity
%
barometer
mb
20260906101004 21 260 0.0 0.0 0.00 0.00 0.00 96 1012.8
20260906100004 21 260 0.0 0.0 0.00 0.00 0.00 96 1012.6
20260906095005 21 260 0.0 0.0 0.00 0.00 0.00 96 1012.7
20260906094005 21 260 0.0 0.0 0.00 0.00 0.00 96 1012.6
20260906093004 21 260 0.0 0.0 0.00 0.00 0.00 96 1012.5
20260906091004 21 260 0.0 0.0 0.00 0.00 0.00 96 1012.8
20260906090004 21 260 0.0 0.0 0.00 0.00 0.00 95 1012.7
20260906083004 21 260 0.0 0.0 0.00 0.00 0.00 95 1012.5
20260906082004 21 260 0.0 0.0 0.00 0.00 0.00 95 1012.4
20260906080005 21 260 0.0 0.0 0.00 0.00 0.00 95 1012.5
20260906075004 22 260 0.0 0.0 0.00 0.00 0.00 95 1012.6
20260906074004 22 260 0.0 0.0 0.00 0.00 0.00 94 1012.4
20260906073004 22 260 0.0 0.0 0.00 0.00 0.00 94 1012.2
20260906072004 22 260 0.0 0.0 0.00 0.00 0.00 94 1012.1
20260906071004 22 260 0.0 0.0 0.00 0.00 0.00 94 1012.2
20260906070004 22 260 0.0 0.0 0.00 0.00 0.00 94 1012.3
20260906065004 22 260 0.0 0.0 0.00 0.00 0.00 94 1012.5
20260906064004 22 260 0.0 0.0 0.00 0.00 0.00 94 1012.7
20260906063004 22 260 0.0 0.0 0.00 0.00 0.00 93 1013.0
20260906062004 22 260 0.0 0.0 0.00 0.00 0.00 93 1013.0
20260906061004 22 260 0.0 0.0 0.00 0.00 0.00 93 1013.0
20260906060004 22 260 0.0 0.0 0.00 0.00 0.00 93 1012.9
20260906055004 22 260 0.0 0.0 0.00 0.00 0.00 92 1012.8
20260906054004 22 260 0.0 0.0 0.00 0.00 0.00 92 1012.9
20260906053004 23 260 0.0 0.0 0.00 0.00 0.00 92 1013.0
20260906050004 23 260 0.0 0.0 0.00 0.00 0.00 92 1013.1
20260906045003 23 260 0.0 0.0 0.00 0.00 0.00 92 1013.2
20260906043004 23 260 0.0 0.0 0.00 0.00 0.00 91 1013.2
20260906042007 23 260 0.0 0.0 0.00 0.00 0.00 91 1013.1
20260906040007 23 260 0.0 0.0 0.00 0.00 0.00 90 1013.3
20260906035007 23 260 0.0 0.0 0.00 0.00 0.00 90 1013.4
20260906034006 23 260 0.0 0.0 0.00 0.00 0.00 90 1013.3
20260906033006 23 260 0.0 0.0 0.00 0.00 0.00 90 1013.3
20260906032006 23 260 0.0 0.0 0.00 0.00 0.00 89 1013.5
20260906031007 24 260 0.0 0.0 0.00 0.00 0.00 89 1013.5
20260906030007 24 260 0.0 0.0 0.00 0.00 0.00 89 1013.5
20260906025007 24 260 0.0 0.0 0.00 0.00 0.00 89 1013.4
20260906024006 25 260 0.0 0.0 0.00 0.00 0.00 88 1013.4
20260906023006 25 260 0.0 0.0 0.00 0.00 0.00 88 1013.3
20260906022007 25 260 0.0 0.0 0.00 0.00 0.00 87 1013.2
20260906021007 25 260 0.0 0.0 0.00 0.00 0.00 87 1013.0
20260906020007 25 260 0.0 0.0 0.00 0.00 0.00 86 1012.9
20260906015006 25 260 0.0 0.0 0.00 0.00 0.00 85 1012.7
20260906013006 26 260 0.0 0.0 0.00 0.00 0.00 84 1012.6
20260906012006 26 260 0.0 0.0 0.00 0.00 0.00 83 1012.5
20260906011006 26 260 0.0 0.0 0.00 0.00 0.00 82 1012.5
20260906010006 26 260 0.0 0.0 0.00 0.00 0.00 82 1012.5
20260906005007 26 260 0.0 0.0 0.00 0.00 0.00 80 1012.6
20260906004006 26 260 0.0 0.0 0.00 0.00 0.00 80 1012.6
20260906003006 26 260 0.0 0.0 0.00 0.00 0.00 78 1012.1
20260906002006 27 260 0.0 0.0 0.00 0.00 0.00 77 1012.3
20260906001006 27 260 0.0 0.0 0.00 0.00 0.00 76 1012.0
20260906000006 27 260 0.0 0.0 0.00 0.00 0.00 74 1012.3
20260905235006 27 260 0.0 0.0 0.00 0.00 0.00 73 1012.3
20260905234006 28 260 0.0 0.0 0.00 0.00 0.00 71 1012.3
20260905233006 28 260 0.0 0.0 0.00 0.00 0.00 69 1012.2
20260905231006 29 260 0.0 0.0 0.00 0.00 0.00 67 1012.2
20260905230006 29 260 0.0 4.8 0.00 0.00 0.00 64 1012.1
20260905225006 30 55 0.0 0.0 0.00 0.00 0.00 62 1012.1
20260905224006 30 55 0.0 0.0 0.00 0.00 0.00 60 1012.1
20260905223006 30 55 0.0 0.0 0.00 0.00 0.00 59 1012.1
20260905222006 31 55 0.0 0.0 0.00 0.00 0.00 57 1012.0
20260905221006 31 55 0.0 0.0 0.00 0.00 0.00 56 1012.0
20260905220006 31 55 0.0 0.0 0.00 0.00 0.00 53 1012.1
20260905215006 32 55 0.0 4.8 0.00 0.00 0.00 51 1012.1
20260905214006 32 53 1.6 8.0 0.00 0.00 0.00 50 1012.1
20260905212005 33 71 0.0 4.8 0.00 0.00 0.00 48 1012.3
20260905211006 33 323 0.0 4.8 0.00 0.00 0.00 47 1012.3
20260905205005 33 6 0.0 0.0 0.00 0.00 0.00 47 1012.5
20260905203006 33 6 0.0 0.0 0.00 0.00 0.00 46 1012.6
20260905202006 33 6 0.0 4.8 0.00 0.00 0.00 46 1012.6
20260905201006 33 294 0.0 3.2 0.00 0.00 0.00 46 1012.6
20260905200006 33 294 0.0 8.0 0.00 0.00 0.00 46 1012.8
20260905195006 33 227 0.0 4.8 0.00 0.00 0.00 46 1013.2
20260905194006 33 231 1.6 9.7 0.00 0.00 0.00 46 1013.1
20260905193005 33 279 0.0 9.7 0.00 0.00 0.00 47 1013.4
20260905192006 33 140 0.0 0.0 0.00 0.00 0.00 46 1013.4
20260905190006 33 150 1.6 8.0 0.00 0.00 0.00 48 1014.0
20260905184006 33 204 0.0 4.8 0.00 0.00 0.00 51 1014.0
20260905182005 32 99 0.0 1.6 0.00 0.00 0.00 53 1014.4
20260905181005 31 141 0.0 0.0 0.00 0.00 0.00 55 1014.6
20260905180005 31 141 3.2 8.0 0.00 0.00 0.00 59 1014.9
20260905175005 30 215 0.0 4.8 0.00 0.00 0.00 64 1015.0
20260905174005 28 312 0.0 3.2 0.00 0.00 0.00 69 1015.1
20260905173006 28 312 0.0 3.2 0.00 0.00 0.00 70 1015.2
20260905172005 28 312 0.0 0.0 0.00 0.00 0.00 74 1015.2
20260905171005 27 312 0.0 3.2 0.00 0.00 0.00 77 1015.4
20260905165005 27 312 0.0 0.0 0.00 0.00 0.00 77 1015.5
20260905164005 27 312 0.0 0.0 0.00 0.00 0.00 73 1015.6
20260905162005 30 312 0.0 9.7 0.00 0.00 0.00 63 1015.6
20260905160006 29 229 0.0 0.0 0.00 0.00 0.00 65 1015.4
20260905154005 30 229 0.0 0.0 0.00 0.00 0.00 66 1015.2
20260905153005 28 229 0.0 0.0 0.00 0.00 0.00 70 1015.1
20260905152005 28 229 0.0 0.0 0.00 0.00 0.00 74 1015.1
20260905144004 25 229 0.0 0.0 0.00 0.00 0.00 85 1015.4
20260905143005 25 229 0.0 0.0 0.00 0.00 0.00 87 1015.5
20260905142005 25 229 0.0 0.0 0.00 0.00 0.00 89 1015.5
20260905141005 24 229 0.0 0.0 0.00 0.00 0.00 91 1015.5
20260905135005 23 229 0.0 0.0 0.00 0.00 0.00 92 1015.4
20260905133005 23 229 0.0 0.0 0.00 0.00 0.00 93 1015.7
20260905132005 23 229 0.0 0.0 0.00 0.00 0.00 94 1015.7
20260905131004 23 229 0.0 0.0 0.00 0.00 0.00 94 1015.7
20260905130004 22 229 0.0 0.0 0.00 0.00 0.00 95 1015.9
20260905125005 22 229 0.0 0.0 0.00 0.00 0.00 95 1015.8
20260905124005 22 229 0.0 0.0 0.00 0.00 0.00 95 1015.9
20260905123005 22 229 0.0 0.0 0.00 0.00 0.00 96 1015.9
20260905121005 21 229 0.0 0.0 0.00 0.00 0.00 96 1015.8
20260905120004 21 229 0.0 0.0 0.00 0.00 0.00 96 1015.7
20260905115005 21 229 0.0 0.0 0.00 0.00 0.00 96 1015.5
20260905114005 21 229 0.0 0.0 0.00 0.00 0.00 96 1015.4
20260905112004 21 229 0.0 0.0 0.00 0.00 0.00 96 1015.1
20260905111004 21 229 0.0 0.0 0.00 0.00 0.00 95 1015.1
20260905110004 21 229 0.0 0.0 0.00 0.00 0.00 95 1015.0
20260905105005 21 229 0.0 0.0 0.00 0.00 0.00 95 1015.0
20260905104005 21 229 0.0 0.0 0.00 0.00 0.00 95 1014.8
20260905103005 21 229 0.0 0.0 0.00 0.00 0.00 95 1014.7
20260905102004 21 229 0.0 0.0 0.00 0.00 0.00 95 1014.7